Location: Beadle
(51.4667°N, 109.0000°W)
Time: 11:52:58
(UTC+00:00)

Tiros 1 - All Passes

Search period start: 28 May 2022 00:00
Search period end: 07 June 2022 00:00
Orbit: 629 x 663 km, 48.4° (Epoch: 27 May)

Date Brightness Start Highest point End Pass type
(mag) Time Alt. Az. Time Alt. Az. Time Alt. Az.
28 May - 06:32:13 10° S 06:34:48 15° SE 06:37:23 10° ESE visible
28 May - 08:11:47 10° SW 08:16:07 40° SSE 08:20:29 10° E visible
28 May - 09:53:21 10° WSW 09:57:56 60° S 10:02:33 10° E visible
28 May - 11:35:22 10° W 11:39:47 43° SSW 11:44:15 10° SE daylight
28 May - 13:18:11 10° WSW 13:21:12 17° SW 13:24:15 10° S daylight
29 May - 06:56:17 10° SSW 07:00:04 25° SSE 07:03:52 10° E visible
29 May - 08:37:09 10° WSW 08:41:40 53° SSE 08:46:14 10° E visible
29 May - 10:19:01 10° W 10:23:35 56° S 10:28:11 10° ESE visible
29 May - 12:01:13 10° W 12:05:16 29° SSW 12:09:21 10° SSE daylight
30 May - 05:41:54 10° S 05:44:13 14° SE 05:46:32 10° ESE visible
30 May - 07:21:13 10° SW 07:25:29 38° SSE 07:29:48 10° E visible
30 May - 09:02:43 10° WSW 09:07:18 60° S 09:11:54 10° E visible
30 May - 10:44:44 10° W 10:49:10 45° SSW 10:53:38 10° SE daylight
30 May - 12:27:26 10° W 12:30:36 18° SW 12:33:48 10° S daylight
31 May - 06:05:47 10° SSW 06:09:28 24° SSE 06:13:09 10° E visible
31 May - 07:46:33 10° WSW 07:51:02 52° SSE 07:55:34 10° E visible
31 May - 09:28:23 10° W 09:32:56 57° S 09:37:31 10° ESE visible
31 May - 11:10:33 10° W 11:14:39 31° SSW 11:18:47 10° SE daylight
01 Jun - 04:51:38 10° SSE 04:53:38 13° SE 04:55:38 10° ESE visible
01 Jun - 06:30:38 10° SW 06:34:52 37° SSE 06:39:08 10° E visible
01 Jun - 08:12:05 10° WSW 08:16:39 60° S 08:21:15 10° E visible
01 Jun - 09:54:05 10° W 09:58:32 46° SSW 10:03:01 10° SE visible
01 Jun - 11:36:42 10° W 11:40:00 19° SW 11:43:19 10° S daylight
02 Jun - 05:15:17 10° SSW 05:18:51 22° SSE 05:22:27 10° E visible
02 Jun - 06:55:56 10° WSW 07:00:24 50° SSE 07:04:54 10° E visible
02 Jun - 08:37:44 10° W 08:42:17 58° S 08:46:53 10° ESE visible
02 Jun - 10:19:53 10° W 10:24:01 32° SSW 10:28:12 10° SE visible
02 Jun - 12:04:30 10° SW 12:05:11 10° SW 12:05:52 10° SW daylight
03 Jun - 04:01:25 10° SSE 04:03:03 12° SE 04:04:40 10° ESE daylight
03 Jun - 05:40:04 10° SW 05:44:15 35° SSE 05:48:27 10° E visible
03 Jun - 07:21:28 10° WSW 07:26:00 59° S 07:30:35 10° E visible
03 Jun - 09:03:26 10° W 09:07:54 48° SSW 09:12:22 10° ESE visible
03 Jun - 10:45:58 10° W 10:49:24 20° SW 10:52:50 10° SSE daylight
04 Jun - 04:24:47 10° SSW 04:28:15 21° SE 04:31:43 10° E visible
04 Jun - 06:05:19 10° WSW 06:09:45 49° SSE 06:14:14 10° E visible
04 Jun - 07:47:05 10° W 07:51:39 59° S 07:56:14 10° ESE visible
04 Jun - 09:29:13 10° W 09:33:24 34° SSW 09:37:36 10° SE visible
04 Jun - 11:13:13 10° WSW 11:14:36 11° SW 11:15:58 10° SSW daylight
05 Jun - 03:11:22 10° SSE 03:12:27 11° SE 03:13:33 10° ESE daylight
05 Jun - 04:49:28 10° SW 04:53:37 33° SSE 04:57:46 10° E visible
05 Jun - 06:30:49 10° WSW 06:35:22 59° S 06:39:56 10° E visible
05 Jun - 08:12:47 10° W 08:17:15 49° SSW 08:21:44 10° ESE visible
05 Jun - 09:55:15 10° W 09:58:46 22° SW 10:02:19 10° SSE visible
06 Jun - 03:34:18 10° SSW 03:37:39 20° SE 03:40:59 10° E daylight
06 Jun - 05:14:41 10° WSW 05:19:07 47° SSE 05:23:34 10° E visible
06 Jun - 06:56:26 10° W 07:01:00 59° S 07:05:33 10° ESE visible
06 Jun - 08:38:33 10° W 08:42:46 35° SSW 08:47:00 10° SE visible
06 Jun - 10:22:12 10° WSW 10:23:59 12° SW 10:25:47 10° SSW daylight
